Owosso, MI

5:19 PM EST on November 18, 2017 (GMT -0500)
Owosso

Weather History for KRNP - March, 2013

Change the Weather History Date:

Friday, March 29, 2013

  Actual Average (KFNT) Record (KFNT)
Temperature  
Mean Temperature 40 °F -  
Max Temperature 52 °F 49 °F 77 °F (1963)
Min Temperature 28 °F 33 °F 12 °F (1923)
Degree Days  
Heating Degree Days 25    
Moisture  
Dew Point 19 °F    
Average Humidity 47    
Maximum Humidity 70    
Minimum Humidity 23    
Precipitation  
Precipitation 0.00 in - - ()
Sea Level Pressure  
Sea Level Pressure 30.24 in    
Wind  
Wind Speed 4 mph (WNW)    
Max Wind Speed 9 mph    
Max Gust Speed -    
Visibility 10 miles    
Events      
Averages and records for this station are not official NWS values.
T = Trace of Precipitation, MM = Missing Value Source: NWS Daily Summary

Daily Weather History Graph

Daily Weather History Graph

Search for Another Location

Airport or City:

Trip Planner

Search our weather history database for the weather conditions in past years. The results will help you decide how hot, cold, wet, or windy it might be!

Date:

Astronomy

Mar. 29, 2013 Rise Set
Actual Time 7:23 AM EDT 7:59 PM EDT
Civil Twilight 6:54 AM EDT 8:28 PM EDT
Nautical Twilight 6:21 AM EDT 9:02 PM EDT
Astronomical Twilight 5:46 AM EDT 9:37 PM EDT
Moon 11:04 PM EDT (3/29) 8:27 AM EDT (3/29)
Length of Visible Light 13h 33m
Length of Day
12h 36m
Waning Gibbous, 93% of the Moon is Illuminated
Mar 29
Waning Gibbous
Apr 3
Last Quarter
Apr 10
New
Apr 18
First Quarter
Apr 25
Full

Hourly Weather History & Observations

Time (EDT) Temp. Windchill Dew Point Humidity Pressure Visibility Wind Dir Wind Speed Gust Speed Precip Events Conditions
12:15 AM 36.0 °F 31.1 °F 21.9 °F 57% 30.26 in 10.0 mi West 5.8 mph - N/A   Clear
12:34 AM 35.2 °F 31.2 °F 21.2 °F 57% 30.26 in 10.0 mi West 4.6 mph - N/A   Clear
12:55 AM 35.6 °F - 21.4 °F 56% 30.26 in 10.0 mi Calm Calm - N/A   Clear
1:15 AM 34.0 °F 29.8 °F 21.0 °F 59% 30.26 in 10.0 mi WSW 4.6 mph - N/A   Clear
1:34 AM 33.8 °F 30.8 °F 21.7 °F 61% 30.27 in 10.0 mi West 3.5 mph - N/A   Clear
1:55 AM 34.0 °F 31.0 °F 21.9 °F 61% 30.27 in 10.0 mi West 3.5 mph - N/A   Clear
2:14 AM 32.9 °F 28.5 °F 21.9 °F 64% 30.27 in 10.0 mi West 4.6 mph - N/A   Clear
2:35 AM 32.7 °F - 22.8 °F 67% 30.27 in 10.0 mi Calm Calm - N/A   Clear
2:55 AM 32.2 °F - 21.7 °F 65% 30.27 in 10.0 mi Calm Calm - N/A   Clear
3:15 AM 32.0 °F - 21.7 °F 66% 30.27 in 10.0 mi Calm Calm - N/A   Clear
3:35 AM 32.0 °F 28.7 °F 21.7 °F 66% 30.27 in 10.0 mi West 3.5 mph - N/A   Clear
3:55 AM 31.5 °F 28.1 °F 21.0 °F 65% 30.27 in 10.0 mi West 3.5 mph - N/A   Clear
4:15 AM 31.1 °F 26.4 °F 20.8 °F 66% 30.27 in 10.0 mi West 4.6 mph - N/A   Clear
4:34 AM 30.2 °F 25.4 °F 20.3 °F 67% 30.27 in 10.0 mi West 4.6 mph - N/A   Clear
4:55 AM 29.8 °F 24.9 °F 19.9 °F 67% 30.27 in 10.0 mi West 4.6 mph - N/A   Clear
5:15 AM 29.3 °F 25.6 °F 19.8 °F 68% 30.27 in 10.0 mi West 3.5 mph - N/A   Clear
5:34 AM 29.7 °F - 19.9 °F 67% 30.27 in 10.0 mi Calm Calm - N/A   Clear
5:55 AM 29.5 °F 25.9 °F 19.8 °F 67% 30.27 in 10.0 mi West 3.5 mph - N/A   Clear
6:15 AM 29.7 °F 26.1 °F 20.3 °F 68% 30.27 in 10.0 mi West 3.5 mph - N/A   Clear
6:34 AM 28.4 °F 23.3 °F 19.2 °F 69% 30.26 in 10.0 mi West 4.6 mph - N/A   Clear
6:55 AM 28.8 °F 25.0 °F 19.9 °F 70% 30.26 in 10.0 mi West 3.5 mph - N/A   Clear
7:15 AM 29.3 °F 25.6 °F 19.8 °F 68% 30.27 in 10.0 mi WSW 3.5 mph - N/A   Clear
7:34 AM 29.3 °F - 19.8 °F 68% 30.27 in 10.0 mi Calm Calm - N/A   Clear
7:55 AM 29.7 °F - 20.8 °F 70% 30.27 in 10.0 mi Calm Calm - N/A   Clear
8:14 AM 30.9 °F 27.5 °F 21.6 °F 68% 30.28 in 10.0 mi West 3.5 mph - N/A   Clear
8:35 AM 32.4 °F 27.9 °F 22.3 °F 66% 30.28 in 10.0 mi West 4.6 mph - N/A   Clear
8:55 AM 34.2 °F 29.0 °F 21.9 °F 61% 30.28 in 10.0 mi West 5.8 mph - N/A   Clear
9:14 AM 36.3 °F 31.6 °F 21.6 °F 55% 30.28 in 10.0 mi WNW 5.8 mph - N/A   Clear
9:35 AM 37.6 °F 34.0 °F 20.8 °F 51% 30.28 in 10.0 mi West 4.6 mph - N/A   Clear
9:54 AM 39.2 °F 35.9 °F 21.0 °F 48% 30.28 in 10.0 mi WNW 4.6 mph - N/A   Clear
10:15 AM 40.3 °F 38.2 °F 20.1 °F 45% 30.28 in 10.0 mi NW 3.5 mph - N/A   Clear
10:35 AM 41.2 °F 39.2 °F 18.5 °F 40% 30.28 in 10.0 mi NNW 3.5 mph - N/A   Clear
10:54 AM 41.5 °F 38.6 °F 15.4 °F 35% 30.28 in 10.0 mi North 4.6 mph - N/A   Clear
11:15 AM 42.4 °F 40.7 °F 16.2 °F 35% 30.28 in 10.0 mi NW 3.5 mph - N/A   Clear
11:34 AM 43.9 °F 42.3 °F 16.5 °F 33% 30.28 in 10.0 mi North 3.5 mph - N/A   Clear
11:55 AM 44.4 °F 42.9 °F 17.8 °F 34% 30.28 in 10.0 mi North 3.5 mph - N/A   Clear
12:14 PM 46.8 °F - 18.3 °F 32% 30.27 in 10.0 mi NW 4.6 mph - N/A   Clear
12:55 PM 46.6 °F - 15.1 °F 28% 30.26 in 10.0 mi NNW 3.5 mph - N/A   Clear
1:14 PM 47.3 °F - 16.5 °F 29% 30.26 in 10.0 mi North 5.8 mph - N/A   Clear
1:35 PM 48.0 °F - 17.2 °F 29% 30.25 in 10.0 mi NNW 5.8 mph - N/A   Clear
1:53 PM 48.9 °F - 17.2 °F 28% 30.25 in 10.0 mi West 5.8 mph - N/A   Clear
2:14 PM 48.6 °F - 16.9 °F 28% 30.24 in 10.0 mi Calm Calm - N/A   Clear
2:35 PM 49.1 °F - 16.9 °F 28% 30.24 in 10.0 mi North 5.8 mph - N/A   Clear
2:55 PM 50.9 °F - 18.0 °F 27% 30.23 in 10.0 mi West 8.1 mph - N/A   Scattered Clouds
3:15 PM 51.6 °F - 16.0 °F 24% 30.22 in 10.0 mi NW 6.9 mph - N/A   Scattered Clouds
3:35 PM 50.9 °F - 14.4 °F 23% 30.22 in 10.0 mi NNW 3.5 mph - N/A   Clear
3:54 PM 51.3 °F - 16.0 °F 25% 30.21 in 10.0 mi North 8.1 mph - N/A   Scattered Clouds
4:15 PM 52.0 °F - 16.9 °F 25% 30.21 in 10.0 mi NW 6.9 mph - N/A   Mostly Cloudy
4:35 PM 52.2 °F - 16.2 °F 24% 30.21 in 10.0 mi WNW 5.8 mph - N/A   Scattered Clouds
4:54 PM 51.8 °F - 16.2 °F 24% 30.20 in 10.0 mi NNW 9.2 mph - N/A   Scattered Clouds
5:15 PM 51.3 °F - 15.4 °F 24% 30.20 in 10.0 mi North 6.9 mph - N/A   Scattered Clouds
5:35 PM 51.8 °F - 15.8 °F 24% 30.20 in 10.0 mi WNW 9.2 mph - N/A   Scattered Clouds
5:54 PM 51.6 °F - 14.9 °F 23% 30.20 in 10.0 mi Calm Calm - N/A   Mostly Cloudy
6:15 PM 51.6 °F - 15.8 °F 24% 30.20 in 10.0 mi WNW 5.8 mph - N/A   Scattered Clouds
6:34 PM 51.1 °F - 15.3 °F 24% 30.20 in 10.0 mi West 6.9 mph - N/A   Clear
6:55 PM 50.4 °F - 15.4 °F 25% 30.20 in 10.0 mi WSW 4.6 mph - N/A   Clear
7:15 PM 49.5 °F - 15.3 °F 26% 30.20 in 10.0 mi WNW 3.5 mph - N/A   Clear
7:34 PM 49.1 °F - 14.7 °F 25% 30.20 in 10.0 mi Calm Calm - N/A   Scattered Clouds
7:55 PM 47.5 °F - 15.8 °F 28% 30.20 in 10.0 mi Calm Calm - N/A   Scattered Clouds
8:15 PM 45.0 °F - 18.0 °F 34% 30.20 in 10.0 mi Calm Calm - N/A   Clear
8:35 PM 42.8 °F - 18.9 °F 38% 30.20 in 10.0 mi Calm Calm - N/A   Clear
8:55 PM 39.9 °F - 19.6 °F 44% 30.20 in 10.0 mi Calm Calm - N/A   Scattered Clouds
9:14 PM 38.5 °F - 20.5 °F 48% 30.21 in 10.0 mi Calm Calm - N/A   Clear
9:35 PM 37.9 °F - 22.8 °F 55% 30.21 in 10.0 mi Calm Calm - N/A   Clear
9:55 PM 36.7 °F - 21.4 °F 54% 30.21 in 10.0 mi Calm Calm - N/A   Clear
10:15 PM 35.4 °F - 22.8 °F 60% 30.21 in 10.0 mi Calm Calm - N/A   Clear
10:35 PM 36.0 °F 32.1 °F 22.8 °F 59% 30.21 in 10.0 mi West 4.6 mph - N/A   Clear
10:54 PM 34.9 °F 30.8 °F 22.3 °F 60% 30.22 in 10.0 mi WSW 4.6 mph - N/A   Clear
11:15 PM 36.7 °F 32.9 °F 22.1 °F 56% 30.22 in 10.0 mi West 4.6 mph - N/A   Clear
11:35 PM 37.4 °F 31.4 °F 21.7 °F 53% 30.21 in 10.0 mi West 8.1 mph - N/A   Clear
11:54 PM 37.6 °F 33.1 °F 21.2 °F 52% 30.21 in 10.0 mi West 5.8 mph - N/A   Clear